Location: Chapel Hill
(35.9134°N, 79.0560°W)
Time: 11:42:48
(UTC-04:00)

ACS3 Solar Sail - Pass Details

Date: 20 June 2024
Orbit: 992 x 1023 km, 97.4° (Epoch: 12 July)

Event Time Altitude Azimuth Distance (km) Brightness Sun altitude
Exits shadow 23:07:26 38° 186° (S) 1,472 5.3 -23.1°
Maximum altitude 23:09:55 72° 259° (W) 1,050 4.9 -23.4°
Drops below altitude 10° 23:16:09 10° 344° (NNW) 2,765 8.2 -24.0°
Sets 23:18:39 0° 347° (NNW) 3,716 9.1 -24.3°
